ARIANE 5 R/B, 40734

Orbit data source: Space-Track

ARIANE 5 R/B, 40734 is space debris in HEO originally from a launch on Wed, 15 Jul 2015 UTC launched from the French Guiana (FRGUI). Debris objects in space refer to the collection of defunct objects orbiting the Earth. Examples of debris include non-operational satellites, rocket bodies, and fragments generated from explosions, collisions, or faulty payload assembly.

Not visible in the next 10 days
Identifier
40734, 2015-034C
Orbit
HEO
Country
Flag of FRFR
Related business
Manufacturer
Airbus Safran
Mission
Spacecraft
Bus & Motor
ESC-A, Unknown motor
Mass
~5,000 kg wet, ~5,000 kg dry
Launch date (UTC)
2015-07-15 (10 years ago)
Launch vehicle
Unknown
Launch site
French Guiana (FRGUI)
Object type
Payload
Rocket body
Debris
Shape & HBR
Cyl + 1 Nozzle, 3.5 m
Radar Cross Section
41.627 m², Large (>1 m²)

Expand to show TLE details & history
Last TLE update: 17 hours ago

TLE from 17 hours ago
0 ARIANE 5 R/B
1 40734U 15034C   25295.49501684  .00003432  00000-0  16011-2 0  9994
2 40734   4.2236 301.3832 7180509  82.5899 346.7810  2.39444660 87044
Epoch: 2025-10-22T11:52Z
TLE epoch observation values (Epoch: 2025-10-22T11:52:49.454Z)
Latitude
-0.00031°
Longitude
91.43969°
Altitude
4,116.564 km
Speed
7.685 km/s
True Right ascension
20h 03m 15s
True Declination
0° 00' 01"
Sunlit
Object was in daylight at epoch
Visualization orbit readout
Latitude
Unknown
Longitude
Unknown
Altitude
Unknown
Speed
Unknown
Apparent Right ascension
Unknown
Apparent Declination
Unknown
Sunlit
N/A
Visualization observer readout
Local Sidereal Time
23:36:42
Azimuth
Unknown
Elevation
Unknown
Doppler factor
Unknown
Orbital elements
Apogee altitude
34,179.165 km
Perigee altitude
277.716 km
Semi-major axis
23,606.578 km
Eccentricity
0.71805
Inclination
4.2236°
RAAN
301.3832°
Arg. of periapsis
82.5899°
True anomaly
277.29356°
Mean anomaly
346.781°
Eccentric anomaly
320.75155°
Mean motion
0.5984 °/min
Orbital period
601.6 mins
BSTAR
0.0016011
Loading maneuver chart data...
Computing Atmospheric mass density...
Loading historical data...
Loading historical data...
Loading historical data...
Loading historical data...
Loading historical data...
Loading historical data...
Loading historical data...

Documentation

Showing up to 5 results
|